Miscellaneous Local Product
Issued by NWS Hastings, NE

Home | Current Version | Previous Version | Graphics & Text | Print | Product List | Glossary On
Versions: 1 2 3 4 5 6 7 8 9 10 11 12 13 14 15 16 17 18 19 20 21 22 23 24 25 26 27 28 29 30 31 32 33 34 35 36 37 38 39 40 41 42 43 44 45 46 47 48 49 50
000
AXUS43 KGID 040402
MISGRI

GID CWA HOURLY WEATHER ROUNDUP
NATIONAL WEATHER SERVICE HASTINGS NE
1100 PM CDT TUE MAY 03 2016

NOTE: "FAIR" INDICATES FEW OR NO CLOUDS BELOW 12,000 FEET WITH NO
SIGNIFICANT WEATHER AND/OR OBSTRUCTIONS TO VISIBILITY.

...SOUTH CENTRAL NEBRASKA...

CITY           SKY/WX    TMP DP  RH WIND       PRES   REMARKS
GRAND ISLAND   CLEAR     54  44  69 W9        29.98S
HASTINGS       CLEAR     53  43  68 W8        29.99R
KEARNEY        CLEAR     54  43  66 NW8       30.02R
ORD            CLEAR     54  43  66 W10       29.97S
YORK           CLEAR     54  46  76 W10       29.95S
AURORA         CLEAR     53  44  72 W9        29.96F
LEXINGTON      CLEAR     50  44  79 NW6       30.04R

...NEBRASKA PANHANDLE...

CITY           SKY/WX    TMP DP  RH WIND       PRES   REMARKS
CHADRON        CLEAR     50  43  77 SW5       30.13R
ALLIANCE       CLEAR     49  40  71 N3        30.14R
SCOTTSBLUFF    CLEAR     53  40  61 CALM      30.16R
SIDNEY         CLEAR     41  35  79 W7        30.17R

...WESTERN AND NORTH CENTRAL NEBRASKA...

CITY           SKY/WX    TMP DP  RH WIND       PRES   REMARKS
VALENTINE      CLEAR     53  42  66 W9        30.04R
AINSWORTH      CLEAR     56  42  59 W9        30.02R
ONEILL         CLEAR     60  43  53 NW12      29.97R
BROKEN BOW     CLEAR     53  41  63 NW7       30.02R
IMPERIAL       CLEAR     52  38  58 NW6       30.11R
NORTH PLATTE   CLEAR     45  38  76 NW7       30.07R
MCCOOK         CLEAR     49  40  71 W9        30.06R

...EASTERN NEBRASKA...

CITY           SKY/WX    TMP DP  RH WIND       PRES   REMARKS
NORFOLK        CLEAR     57  44  62 NW10      29.90R
SO SIOUX CITY  CLEAR     59  46  62 NW13      29.87R
TEKAMAH        CLEAR     57  46  66 W13       29.83F
COLUMBUS       CLEAR     54  37  54 W3        29.91F
ALBION         CLEAR     55  43  65 NW7       29.93S
OMAHA EPPLEY   MOCLDY    62  45  53 CALM      29.85F
OFFUTT AFB     MOCLDY    61  45  55 W7        29.85F
MILLARD        CLEAR     61  45  54 W5        29.86F
LINCOLN        CLEAR     60  45  57 W7        29.91F
BEATRICE       CLEAR     54  44  69 W5        29.93S
FALLS CITY     CLEAR     57  43  59 SW9       29.90F

...NORTHERN KANSAS...

CITY           SKY/WX    TMP DP  RH WIND       PRES   REMARKS
GOODLAND       CLEAR     46  37  71 W8        30.13R
HILL CITY      CLEAR     51  43  74 W7        30.06R
NORTON         CLEAR     54  41  62 SW7       30.04
PHILLIPSBURG   CLEAR     52  45  76 CALM      30.03R
SMITH CENTER   CLEAR     52  43  71 SW7       30.01S
BELOIT         CLEAR     52  45  76 CALM      29.99S
HAYS           CLEAR     52  39  62 W5        30.05S
RUSSELL        CLEAR     53  45  74 W7        30.02S
CONCORDIA      CLEAR     55  43  63 SW8       29.98S
SALINA         CLEAR     59  44  57 W8        30.00S
TOPEKA         CLEAR     55  47  74 CALM      29.94F



USA.gov is the U.S. government's official web portal to all federal, state and local government web resources and services.